Weather in Sonkovo

Russia / Tver Oblast     57°46′49″N   37°09′46″E
temp.,
°C
wind,
m/s
gust,
m/s
humid.,
%
clouds,
%
prec.,
mm/h
press.,
hPa
HPBL,
m
24 october, sun
sun2400:00+3wsw4795100 0.0 1006475
03:00+3w3789100 0.1 1007598
06:00+2wnw4893100 0.1 1008593
09:00+2wnw61196100 0.8 1009641
12:00+2nnw8117693 0.5 10131197
15:00+3nnw7116867 0.6 10161448
18:000nw6128273 0.1 1020705
21:00−1nw5118414 0.1 1022551
25 october, mon
mon2500:00−2nw49875 0.0 1024383
03:00−2wnw37885 0.0 1026252
06:00−2w3684100 0.0 1027255
09:00−1wsw3679100 0.0 1027311
12:00+1sw5863100 0.0 1026583
15:00+3sw61366100 0.0 1023768
18:00+3sw61477100 0.0 1022632
21:00+2sw61581100 0.0 1021589
26 october, tue
tue2600:00+1wsw6148973 0.0 1020489
03:00+1sw5139073 0.0 1020409
06:000sw51389100 0.0 1019389
09:00+1sw51282100 0.0 1018447
12:00+4sw51169100 0.0 1017543
15:00+4sw51171100 0.0 1016581
18:00+2sw51281100 0.0 1016360
21:00+2sw51183100 0.0 1016349
27 october, wed
wed2700:00+1sw51186100 0.0 1015323
03:00+1sw41189100 0.0 1014284
06:00+1sw51190100 0.0 1014274
09:00+2sw51286100 0.0 1012360
12:00+4sw61279100 0.0 1011458
15:00+5sw61282100 0.1 1010604
18:00+4wsw51294100 1.1 1010575
21:00+5w61289100 1.1 1011685
28 october, thu
thu2800:00+5w6118769 0.1 1012563
03:00+6wnw71279100 0.1 10131024
06:00+5w51084100 0.1 1013607
09:00+5sw4792100 0.1 1014331
12:00+5s4886100 0.3 1013380
15:00+5s3896100 3.0 1011474
18:00+5nnw0098100 0.6 101227
21:00+5nne3697100 1.3 1014506